Hourly Data Report for September 04, 2017

All times are specified in Local Standard Time (LST). Add 1 hour to adjust for Daylight Saving Time where and when it is observed.

MISCOU ISLAND (AUT)
NEW BRUNSWICK

48°00'32.002" N
64°29'39.008" W
4.00 m
8103050
71719
WMI

Download Data

Hourly Data (September 2017)
Hourly Data Report for September 4, 2017
Temp Definition
°C
Dew Point Temp Definition
°C
Rel Hum Definition
%
Wind Dir Definition
10's deg

Wind Spd Definition
km/h
Visibility Definition
km
Stn Press Definition
kPa
Hmdx Definition


Wind Chill Definition


Weather Definition


TIME
00:00 14.8 11.8 82 15 15   101.27     LegendNANA
01:00 14.9 12.1 83 15 15   101.18     LegendNANA
02:00 14.9 12.2 84 14 20   100.98     LegendNANA
03:00 14.4 12.3 87 14 18   100.83     LegendNANA
04:00 13.8 12.5 92 12 20   100.66     LegendNANA
05:00 13.7 12.8 94 9 20   100.43     LegendNANA
06:00 14.1 13.4 95 8 28   100.24     LegendNANA
07:00 14.5 13.8 96 9 20   100.07     LegendNANA
08:00 15.0 14.3 96 12 12   99.92     LegendNANA
09:00 15.5 14.9 96 16 15   99.80     LegendNANA
10:00 17.4 16.6 95 19 23   99.71     LegendNANA
11:00 18.1 16.3 89 22 25   99.69     LegendNANA
12:00 17.3 15.2 88 27 19   99.69     LegendNANA
13:00 16.2 14.6 91 24 26   99.76     LegendNANA
14:00 17.4 14.2 82 25 36   99.85     LegendNANA
15:00 17.7 13.5 77 25 36   99.92     LegendNANA
16:00 17.4 12.5 73 25 31   100.02     LegendNANA
17:00 16.8 12.3 75 26 32   100.09     LegendNANA
18:00 15.5 11.7 78 26 30   100.18     LegendNANA
19:00 14.7 11.4 81 26 26   100.27     LegendNANA
20:00 14.7 11.3 80 25 20   100.42     LegendNANA
21:00 12.7 10.8 88 20 12   100.45     LegendNANA
22:00 13.5 11.9 90 19 12   100.46     LegendNANA
23:00 16.1 12.5 79 22 24   100.44     LegendNANA

Notes on Data Quality.

Legend

  • E = Estimated
  • M = Missing
  • NA = Not Available
  • ‡ = Partner data that is not subject to review by the National Climate Archives
Date modified: